Skip Page Navigation
NASA JPL Caltech
NASA Logo - Jet Propulsion Laboratory + View the NASA Portal
+ Near-Earth Object (NEO) Program
Search JPL
JPL Home Earth Solar System Stars & Galaxies Technology
JPL Solar System Dynamics
BODIES ORBITS EPHEMERIDES TOOLS PHYSICAL DATA DISCOVERY FAQ SITE MAP
JPL Small-Body Database Browser
Search: [ help ]  
11770 Rudominkowski (3163 T-2)
Classification: Main-belt Asteroid          SPK-ID: 2011770
Ephemeris | Orbit Diagram | Orbital Elements | Physical Parameters | Discovery Circumstances ]

[ show orbit diagram ]
Orbital Elements at Epoch 2456400.5 (2013-Apr-18.0) TDB
Reference: MPO240300 (heliocentric ecliptic J2000)
 Element Value Uncertainty (1-sigma)   Units 
e 0.1343485 n/a  
a 3.1747930 n/a AU
q 2.7482643 n/a AU
i 3.54960 n/a deg
node 74.69565 n/a deg
peri 108.56082 n/a deg
M 170.98156 n/a deg
tp 2455419.1626867
(2010-Aug-10.66268670)
n/a JED
period 2066.1961020
5.66
n/a
n/a
d
yr
n 0.17423322 n/a deg/d
Q 3.6013217 n/a AU
  Orbit Determination Parameters
   # obs. used (total)      775  
   first obs. used      1973-??-??  
   last obs. used      2012-09-05  
   # oppositions      16  
   planetary ephem.      DE403  
   condition code      0  
   fit RMS      0.61  
   data source      MPC:mpn  
   producer      MPCLINUX  

Additional Information
 T_jup = 3.184 

Ephemeris | Orbit Diagram | Orbital Elements | Physical Parameters | Discovery Circumstances ]

Physical Parameter Table
Parameter Symbol Value Units Sigma Reference Notes
absolute magnitude H 13.8 mag n/a PDS3 (MPC 35902)  

11770 Rudominkowski           Discovered 1973 Sept. 30 by C. J. van Houten and I. van Houten-Groeneveld on Palomar Schmidt plates taken by T. Gehrels.
Rudolph Minkowski (1895-1976) was a German-born American astronomer who investigated planetary nebulae, supernovae (specifying the Types I and II) and some of the earliest-discovered radio sources. This led to the Palomar Sky Survey.
NOTE: some special characters may not display properly (any characters within {} are an attempt to place the proper accent above a character)
Reference: 20071124/MPCPages.arcLast Updated: 2007-11-26

Alternate Designations
 3163 T-2 = 1990 RU17 = 1996 TL8 
Ephemeris | Orbit Diagram | Orbital Elements | Physical Parameters | Discovery Circumstances ]
ABOUT SSD CREDITS/AWARDS PRIVACY/COPYRIGHT GLOSSARY LINKS
FirstGov 2013-May-21 10:56 UT
(server date/time)  
NASA Home Page
Site Manager:   Donald K. Yeomans
Webmaster  Alan B. Chamberlin